�������l�o���
Date,Time,MP-1(��Sv/h),MP-2(��Sv/h),MP-3(��Sv/h),MP-4(��Sv/h),MP-5(��Sv/h),MP-6(��Sv/h),MP-7(��Sv/h),MP-8(��Sv/h),����,����(m/s),���J
2022/04/14,00:00,0.588,0.880,0.559,1.073,0.764,0.351,0.609,0.574,�k,5.1,��
2022/04/14,00:10,0.588,0.879,0.558,1.073,0.765,0.352,0.608,0.575,�k�k��,4.8,��
2022/04/14,00:20,0.588,0.879,0.559,1.073,0.766,0.351,0.609,0.572,�k,3.8,��
2022/04/14,00:30,0.587,0.879,0.557,1.072,0.766,0.351,0.608,0.574,�k�k��,5.6,��
2022/04/14,00:40,0.589,0.877,0.559,1.071,0.765,0.354,0.608,0.573,�k,5.2,��
2022/04/14,00:50,0.588,0.880,0.559,1.073,0.765,0.353,0.608,0.575,�k,5.7,��
2022/04/14,01:00,0.588,0.879,0.558,1.074,0.765,0.351,0.607,0.575,�k,5.6,��
2022/04/14,01:10,0.588,0.878,0.558,1.073,0.762,0.352,0.608,0.573,�k,5.9,��
2022/04/14,01:20,0.587,0.878,0.557,1.072,0.766,0.352,0.607,0.574,�k,5.3,��
2022/04/14,01:30,0.588,0.879,0.559,1.074,0.767,0.351,0.607,0.574,�k,6.5,��
2022/04/14,01:40,0.588,0.880,0.557,1.073,0.766,0.351,0.608,0.575,�k,5.7,��
2022/04/14,01:50,0.586,0.878,0.557,1.075,0.766,0.351,0.607,0.574,�k,5.8,��
2022/04/14,02:00,0.589,0.879,0.556,1.074,0.766,0.351,0.609,0.575,�k,6.8,��
2022/04/14,02:10,0.589,0.879,0.559,1.072,0.763,0.351,0.609,0.575,�k,5.8,��
2022/04/14,02:20,0.589,0.878,0.559,1.074,0.765,0.350,0.609,0.576,�k,5.3,��
2022/04/14,02:30,0.587,0.880,0.559,1.074,0.765,0.351,0.607,0.574,�k,7.0,��
2022/04/14,02:40,0.587,0.879,0.558,1.072,0.765,0.352,0.609,0.576,�k,8.0,��
2022/04/14,02:50,0.586,0.880,0.558,1.070,0.765,0.352,0.608,0.574,�k,6.7,��
2022/04/14,03:00,0.587,0.878,0.558,1.071,0.763,0.351,0.605,0.574,�k�k��,7.1,��
2022/04/14,03:10,0.587,0.878,0.558,1.074,0.764,0.352,0.606,0.574,�k,6.3,��
2022/04/14,03:20,0.587,0.881,0.559,1.075,0.765,0.351,0.607,0.574,�k,6.9,��
2022/04/14,03:30,0.587,0.879,0.557,1.072,0.768,0.351,0.608,0.574,�k,6.6,��
2022/04/14,03:40,0.588,0.879,0.558,1.073,0.764,0.352,0.607,0.575,�k,7.2,��
2022/04/14,03:50,0.588,0.878,0.558,1.073,0.766,0.351,0.608,0.573,�k�k��,8.1,��
2022/04/14,04:00,0.587,0.878,0.557,1.073,0.765,0.351,0.607,0.574,�k,6.9,��
2022/04/14,04:10,0.586,0.879,0.558,1.075,0.765,0.351,0.606,0.573,�k,6.7,��
2022/04/14,04:20,0.587,0.876,0.558,1.074,0.766,0.351,0.605,0.573,�k,5.2,��
2022/04/14,04:30,0.587,0.879,0.557,1.075,0.764,0.351,0.608,0.574,�k,5.3,�L
2022/04/14,04:40,0.586,0.882,0.558,1.072,0.765,0.350,0.608,0.572,�k,5.3,�L
2022/04/14,04:50,0.587,0.877,0.558,1.074,0.764,0.352,0.606,0.573,�k�k��,6.7,�L
2022/04/14,05:00,0.587,0.878,0.558,1.074,0.765,0.351,0.606,0.573,�k�k��,4.7,�L
2022/04/14,05:10,0.587,0.877,0.557,1.073,0.765,0.351,0.606,0.574,�k�k��,5.7,��
2022/04/14,05:20,0.588,0.881,0.557,1.074,0.765,0.351,0.607,0.575,�k,5.8,��
2022/04/14,05:30,0.588,0.878,0.559,1.073,0.762,0.350,0.607,0.574,�k,6.3,��
2022/04/14,05:40,0.585,0.877,0.559,1.073,0.765,0.349,0.607,0.574,�k,6.8,�L
2022/04/14,05:50,0.587,0.879,0.559,1.072,0.763,0.351,0.608,0.575,�k,6.8,�L
2022/04/14,06:00,0.589,0.880,0.558,1.076,0.766,0.351,0.607,0.574,�k�k��,6.2,�L
2022/04/14,06:10,0.588,0.879,0.558,1.077,0.765,0.353,0.607,0.573,�k�k��,5.5,�L
2022/04/14,06:20,0.587,0.879,0.558,1.074,0.765,0.352,0.608,0.573,�k�k��,6.0,�L
2022/04/14,06:30,0.586,0.879,0.558,1.072,0.765,0.351,0.607,0.574,�k,5.8,�L
2022/04/14,06:40,0.587,0.877,0.558,1.074,0.764,0.350,0.605,0.575,�k�k��,6.3,�L
2022/04/14,06:50,0.587,0.879,0.558,1.073,0.764,0.352,0.606,0.573,�k�k��,6.5,�L
2022/04/14,07:00,0.586,0.879,0.558,1.075,0.763,0.352,0.608,0.574,�k,5.5,�L
2022/04/14,07:10,0.586,0.879,0.557,1.075,0.764,0.353,0.606,0.574,�k,6.4,�L
2022/04/14,07:20,0.585,0.877,0.557,1.073,0.762,0.352,0.607,0.574,�k,6.5,�L
2022/04/14,07:30,0.587,0.878,0.558,1.073,0.763,0.351,0.607,0.573,�k�k��,6.8,�L
2022/04/14,07:40,0.585,0.877,0.556,1.074,0.764,0.351,0.606,0.572,�k,6.8,�L
2022/04/14,07:50,0.588,0.878,0.557,1.073,0.763,0.353,0.606,0.573,�k,6.6,�L
2022/04/14,08:00,0.585,0.877,0.559,1.074,0.764,0.351,0.607,0.573,�k�k��,7.9,�L
2022/04/14,08:10,0.586,0.878,0.557,1.074,0.763,0.352,0.607,0.575,�k�k��,7.0,�L
2022/04/14,08:20,0.585,0.872,0.556,1.072,0.762,0.352,0.607,0.573,�k�k��,7.7,�L
2022/04/14,08:30,0.584,0.871,0.555,1.073,0.760,0.351,0.605,0.573,�k�k��,8.4,�L
2022/04/14,08:40,0.583,0.870,0.562,1.071,0.760,0.351,0.606,0.572,�k�k��,9.6,�L
2022/04/14,08:50,0.584,0.870,0.556,1.070,0.759,0.351,0.606,0.573,�k�k��,9.0,�L
2022/04/14,09:00,0.583,0.871,0.554,1.070,0.759,0.351,0.603,0.571,�k�k��,7.9,�L
2022/04/14,09:10,0.583,0.868,0.556,1.069,0.760,0.351,0.606,0.572,�k�k��,9.0,�L
2022/04/14,09:20,0.582,0.867,0.556,1.069,0.758,0.350,0.604,0.571,�k�k��,9.3,�L
2022/04/14,09:30,0.582,0.867,0.563,1.072,0.756,0.349,0.604,0.571,�k�k��,8.3,�L
2022/04/14,09:40,0.583,0.867,0.553,1.068,0.756,0.350,0.604,0.572,�k�k��,8.3,�L
2022/04/14,09:50,0.583,0.869,0.553,1.070,0.757,0.349,0.607,0.573,�k�k��,9.3,�L
2022/04/14,10:00,0.584,0.868,0.552,1.070,0.756,0.350,0.606,0.570,�k�k��,8.4,�L
2022/04/14,10:10,0.583,0.867,0.553,1.070,0.755,0.349,0.604,0.571,�k�k��,8.4,�L
2022/04/14,10:20,0.585,0.867,0.552,1.067,0.756,0.349,0.605,0.570,�k�k��,7.9,�L
2022/04/14,10:30,0.583,0.869,0.553,1.068,0.757,0.350,0.606,0.572,�k�k��,8.1,�L
2022/04/14,10:40,0.583,0.869,0.552,1.068,0.755,0.349,0.607,0.573,�k,8.6,�L
2022/04/14,10:50,0.584,0.868,0.553,1.069,0.756,0.349,0.606,0.570,�k�k��,8.1,�L
2022/04/14,11:00,0.582,0.868,0.552,1.069,0.756,0.349,0.605,0.571,�k�k��,7.5,�L
2022/04/14,11:10,0.582,0.869,0.555,1.070,0.756,0.350,0.605,0.572,�k�k��,9.2,�L
2022/04/14,11:20,0.583,0.868,0.553,1.071,0.760,0.351,0.605,0.571,�k,7.2,�L
2022/04/14,11:30,0.584,0.871,0.553,1.070,0.756,0.350,0.606,0.573,�k,7.6,�L
2022/04/14,11:40,0.583,0.869,0.551,1.069,0.756,0.349,0.605,0.573,�k�k��,7.9,�L
2022/04/14,11:50,0.584,0.869,0.552,1.066,0.756,0.348,0.607,0.573,�k�k��,7.0,�L
2022/04/14,12:00,0.583,0.870,0.553,1.068,0.756,0.349,0.605,0.572,�k,7.8,�L
2022/04/14,12:10,0.584,0.868,0.554,1.070,0.755,0.349,0.606,0.572,�k�k��,6.8,�L
2022/04/14,12:20,0.583,0.869,0.554,1.067,0.754,0.349,0.606,0.572,�k,8.0,�L
2022/04/14,12:30,0.584,0.867,0.554,1.069,0.755,0.349,0.606,0.571,�k,6.1,�L
2022/04/14,12:40,0.582,0.868,0.553,1.069,0.755,0.350,0.605,0.570,�k�k��,5.5,�L
2022/04/14,12:50,0.582,0.870,0.552,1.068,0.754,0.350,0.604,0.572,�k,7.0,�L
2022/04/14,13:00,0.583,0.868,0.552,1.066,0.754,0.349,0.607,0.570,�k�k��,6.7,�L
2022/04/14,13:10,0.583,0.867,0.552,1.069,0.755,0.350,0.603,0.573,�k,6.8,�L
2022/04/14,13:20,0.583,0.867,0.552,1.068,0.753,0.349,0.605,0.571,�k,7.7,�L
2022/04/14,13:30,0.583,0.866,0.551,1.065,0.752,0.348,0.604,0.570,�k,7.1,�L
2022/04/14,13:40,0.581,0.863,0.551,1.065,0.751,0.349,0.605,0.571,�k,6.9,�L
2022/04/14,13:50,0.583,0.864,0.552,1.065,0.753,0.349,0.604,0.571,�k,7.4,�L
2022/04/14,14:00,0.584,0.864,0.550,1.067,0.752,0.348,0.604,0.572,�k,6.8,�L
2022/04/14,14:10,0.583,0.863,0.552,1.067,0.753,0.347,0.604,0.571,�k,8.1,�L
2022/04/14,14:20,0.582,0.861,0.548,1.067,0.750,0.348,0.604,0.571,�k,7.4,�L
2022/04/14,14:30,0.581,0.863,0.552,1.067,0.751,0.348,0.605,0.572,�k,7.1,�L
2022/04/14,14:40,0.582,0.862,0.550,1.065,0.751,0.349,0.605,0.573,�k,6.5,�L
2022/04/14,14:50,0.581,0.863,0.550,1.068,0.752,0.348,0.605,0.572,�k,6.8,�L
2022/04/14,15:00,0.581,0.864,0.550,1.067,0.753,0.348,0.605,0.571,�k,7.5,�L
2022/04/14,15:10,0.580,0.861,0.549,1.066,0.753,0.348,0.603,0.572,�k,7.8,�L
2022/04/14,15:20,0.581,0.865,0.549,1.066,0.753,0.348,0.605,0.572,�k,7.6,�L
2022/04/14,15:30,0.579,0.866,0.550,1.065,0.751,0.348,0.605,0.572,�k,7.8,�L
2022/04/14,15:40,0.580,0.863,0.551,1.067,0.751,0.350,0.604,0.572,�k,8.7,�L
2022/04/14,15:50,0.581,0.865,0.552,1.066,0.753,0.349,0.604,0.571,�k,7.6,�L
2022/04/14,16:00,0.581,0.865,0.550,1.065,0.752,0.349,0.606,0.572,�k,6.7,�L
2022/04/14,16:10,0.580,0.864,0.548,1.066,0.751,0.348,0.606,0.572,�k,7.7,�L
2022/04/14,16:20,0.581,0.864,0.551,1.068,0.752,0.350,0.605,0.571,�k,6.8,�L
2022/04/14,16:30,0.582,0.863,0.549,1.066,0.751,0.349,0.604,0.572,�k,6.3,�L
2022/04/14,16:40,0.580,0.865,0.550,1.066,0.751,0.349,0.605,0.570,�k,7.5,�L
2022/04/14,16:50,0.582,0.864,0.550,1.066,0.750,0.348,0.603,0.572,�k,5.8,�L
2022/04/14,17:00,0.581,0.861,0.549,1.067,0.751,0.347,0.603,0.570,�k,6.7,�L
2022/04/14,17:10,0.579,0.861,0.549,1.064,0.749,0.348,0.605,0.570,�k,7.6,�L
2022/04/14,17:20,0.580,0.861,0.548,1.068,0.749,0.349,0.605,0.572,�k�k��,7.6,�L
2022/04/14,17:30,0.579,0.860,0.550,1.065,0.749,0.349,0.603,0.572,�k,7.3,�L
2022/04/14,17:40,0.579,0.862,0.550,1.065,0.749,0.350,0.605,0.571,�k,6.9,�L
2022/04/14,17:50,0.581,0.861,0.549,1.063,0.749,0.348,0.605,0.571,�k,6.7,�L
2022/04/14,18:00,0.579,0.861,0.548,1.062,0.749,0.348,0.605,0.570,�k,5.7,�L
2022/04/14,18:10,0.580,0.861,0.549,1.064,0.747,0.347,0.604,0.570,�k,6.8,�L
2022/04/14,18:20,0.580,0.861,0.549,1.064,0.749,0.347,0.604,0.570,�k�k��,6.4,�L
2022/04/14,18:30,0.580,0.861,0.549,1.065,0.749,0.347,0.605,0.570,�k�k��,6.5,�L
2022/04/14,18:40,0.578,0.860,0.549,1.066,0.748,0.348,0.604,0.572,�k,7.0,�L
2022/04/14,18:50,0.580,0.858,0.549,1.063,0.748,0.348,0.604,0.570,�k,7.4,�L
2022/04/14,19:00,0.577,0.856,0.549,1.059,0.744,0.348,0.603,0.570,�k,6.6,�L
2022/04/14,19:10,0.579,0.854,0.547,1.059,0.744,0.348,0.604,0.568,�k,6.9,�L
2022/04/14,19:20,0.577,0.851,0.547,1.058,0.743,0.350,0.602,0.569,�k,6.5,�L
2022/04/14,19:30,0.576,0.853,0.547,1.057,0.744,0.348,0.602,0.569,�k,7.2,�L
2022/04/14,19:40,0.574,0.851,0.545,1.057,0.741,0.347,0.602,0.568,�k,5.9,�L
2022/04/14,19:50,0.576,0.849,0.546,1.055,0.742,0.349,0.603,0.567,�k,6.3,�L
2022/04/14,20:00,0.573,0.851,0.546,1.052,0.740,0.347,0.602,0.568,�k�k��,6.5,�L
2022/04/14,20:10,0.574,0.849,0.545,1.054,0.740,0.347,0.600,0.568,�k�k��,6.8,�L
2022/04/14,20:20,0.574,0.847,0.544,1.052,0.738,0.348,0.600,0.569,�k,7.0,�L
2022/04/14,20:30,0.573,0.850,0.545,1.048,0.740,0.348,0.602,0.568,�k,7.3,�L
2022/04/14,20:40,0.572,0.848,0.544,1.050,0.739,0.347,0.600,0.567,�k,6.5,�L
2022/04/14,20:50,0.573,0.848,0.543,1.048,0.737,0.347,0.600,0.568,�k�k��,5.9,�L
2022/04/14,21:00,0.572,0.847,0.543,1.047,0.738,0.348,0.601,0.566,�k,6.2,�L
2022/04/14,21:10,0.572,0.845,0.545,1.049,0.737,0.346,0.601,0.568,�k�k��,7.0,�L
2022/04/14,21:20,0.571,0.846,0.544,1.046,0.735,0.345,0.600,0.566,�k,5.9,�L
2022/04/14,21:30,0.571,0.841,0.541,1.040,0.733,0.346,0.599,0.567,�k�k��,6.3,�L
2022/04/14,21:40,0.570,0.844,0.542,1.039,0.733,0.346,0.599,0.568,�k�k��,6.4,�L
2022/04/14,21:50,0.569,0.843,0.542,1.038,0.733,0.347,0.600,0.566,�k�k��,7.0,�L
2022/04/14,22:00,0.569,0.841,0.542,1.037,0.733,0.347,0.599,0.566,�k�k��,7.5,�L
2022/04/14,22:10,0.569,0.842,0.543,1.037,0.733,0.347,0.599,0.565,�k�k��,7.5,�L
2022/04/14,22:20,0.570,0.842,0.543,1.038,0.734,0.345,0.598,0.565,�k�k��,7.2,�L
2022/04/14,22:30,0.569,0.842,0.541,1.035,0.733,0.345,0.599,0.566,�k�k��,7.2,�L
2022/04/14,22:40,0.568,0.842,0.542,1.035,0.733,0.345,0.599,0.567,�k�k��,6.6,�L
2022/04/14,22:50,0.569,0.841,0.542,1.035,0.732,0.346,0.599,0.566,�k�k��,5.1,�L
2022/04/14,23:00,0.568,0.839,0.542,1.036,0.731,0.345,0.599,0.565,�k�k��,6.8,�L
2022/04/14,23:10,0.567,0.840,0.539,1.033,0.732,0.344,0.598,0.564,�k�k��,5.3,�L
2022/04/14,23:20,0.563,0.836,0.538,1.027,0.725,0.344,0.596,0.562,�k��,5.3,�L
2022/04/14,23:30,0.565,0.833,0.541,1.027,0.727,0.344,0.596,0.563,�k�k��,6.6,�L
2022/04/14,23:40,0.563,0.832,0.539,1.027,0.725,0.344,0.595,0.564,�k�k��,5.5,�L
2022/04/14,23:50,0.563,0.830,0.537,1.025,0.724,0.344,0.597,0.563,�k�k��,6.3,�L
